Wetbulb
57.78 54.05 52.15 52.34 44.04 39.37 34.68 37.67 39.77 41.72 41.58 43.66 47.78 48.41 46.13 46.76 45.62 39.93 56.70 66.52 69.99 70.83 71.24 71.76 71.95 73.68 73.69 73.76 73.62 73.24 73.04 72.72 72.48 71.92 71.19 70.32 69.89 69.50 68.89 68.32 68.17 68.10 67.37 66.60 65.92 66.23 68.00 68.21 68.74
56.13 56.33 52.76 45.91 37.70 32.81 34.42 37.72 41.06 42.66 44.77 46.44 46.58 45.44 47.27 47.46 53.03 55.14 57.14 68.10 70.48 71.17 71.89 71.76 71.63 72.93 73.20 73.34 73.35 73.19 73.00 72.60 72.17 71.86 70.71 70.21 69.60 69.13 68.41 67.70 67.45 67.01 66.38 65.84 65.25 65.31 66.54 66.78 67.28
55.23 53.85 47.84 41.53 35.17 33.74 35.33 38.85 41.53 44.02 45.23 43.78 44.21 47.69 47.51 48.88 53.31 54.81 58.30 68.43 70.42 70.47 71.83 71.10 71.58 72.77 72.88 72.94 73.10 73.19 72.99 72.79 72.20 71.75 70.91 70.06 69.48 68.89 68.17 67.30 66.44 65.71 65.01 64.30 63.83 63.73 63.97 64.78 65.48
51.24 50.18 45.53 38.21 34.76 36.62 39.25 40.67 42.31 43.13 43.03 45.96 45.23 44.20 50.20 54.23 55.02 58.01 62.40 69.54 69.42 70.25 71.28 70.27 71.74 72.86 72.94 72.80 72.93 72.90 72.82 72.34 72.04 71.62 70.92 69.96 69.35 68.70 68.14 67.28 66.27 65.15 63.87 63.04 62.50 62.38 62.23 62.48 63.23
48.58 44.91 39.02 35.41 35.15 38.50 38.87 41.70 43.53 42.76 41.32 43.02 43.73 42.03 47.15 53.84 56.96 60.11 63.10 67.41 68.00 69.35 70.63 70.22 70.81 71.91 72.40 72.51 72.50 72.46 72.43 72.18 71.51 71.15 70.90 69.89 69.18 68.53 68.12 67.34 66.63 65.78 64.31 62.35 61.26 60.82 60.34 60.22 61.16
45.91 42.44 36.74 33.94 34.82 38.57 40.64 43.66 43.58 40.63 41.31 43.96 44.17 43.41 44.77 51.48 57.66 58.43 59.71 60.54 66.18 69.12 70.63 70.53 68.08 69.25 70.49 71.40 71.37 71.05 71.69 71.84 71.72 71.36 70.41 69.81 69.17 68.56 68.22 67.43 66.71 66.00 65.09 62.78 60.00 59.10 58.50 58.86 59.24
42.76 39.07 36.39 34.25 36.35 38.57 42.05 44.14 41.52 40.80 41.59 41.33 45.67 42.16 44.34 48.50 54.22 55.65 54.50 54.38 56.69 62.58 64.08 68.48 68.84 68.45 67.91 68.63 68.87 69.59 70.19 70.40 70.56 70.66 70.36 69.53 69.02 68.79 68.28 67.37 66.63 66.02 65.02 62.54 59.98 58.33 57.60 57.86 57.92
43.16 39.66 34.82 35.17 36.62 37.84 42.13 42.25 43.02 43.09 41.71 45.14 44.01 40.86 42.10 46.69 52.27 53.02 51.49 50.53 50.53 52.13 53.60 56.49 65.55 68.02 68.36 68.57 66.19 67.05 68.04 68.46 68.84 68.50 67.59 66.52 66.61 66.84 66.62 65.54 66.42 65.83 64.68 62.49 60.49 58.69 57.69 57.24 56.96
42.26 36.03 33.73 35.36 37.58 39.60 41.91 41.50 43.15 43.39 43.79 42.41 43.55 42.70 44.15 48.37 50.77 49.32 47.74 47.64 48.49 49.84 49.93 51.13 55.11 59.72 66.64 68.60 66.73 65.48 66.17 66.62 66.34 65.56 64.30 63.75 65.57 65.86 64.86 64.43 65.75 65.65 64.70 63.15 61.87 59.67 57.45 55.80 56.53
40.92 34.87 37.26 39.83 39.85 39.97 42.50 42.42 43.76 42.01 41.32 40.67 41.55 44.02 45.98 47.07 48.09 47.29 44.88 44.72 44.48 45.89 48.60 49.93 50.74 52.16 56.69 65.09 67.70 67.28 67.32 67.91 67.85 66.10 65.07 65.75 65.95 65.20 64.22 61.67 62.82 64.07 63.68 64.03 62.82 60.51 57.45 53.15 48.38
39.62 37.67 40.05 41.23 43.31 43.44 42.92 41.35 43.05 41.53 39.04 41.86 42.02 43.71 44.61 44.53 44.84 44.67 43.36 43.54 44.01 45.12 48.57 51.69 52.43 52.04 51.82 59.85 65.57 67.71 66.50 66.45 66.12 65.65 65.60 66.11 64.70 63.55 62.14 60.18 59.87 59.59 59.19 58.93 58.54 55.46 53.00 50.93 49.90
36.86 41.48 41.62 44.64 44.36 43.88 42.78 43.07 41.80 41.73 42.02 43.92 44.28 44.35 43.37 43.26 43.05 43.20 43.27 43.89 44.80 46.96 48.19 50.12 51.67 53.06 52.16 53.76 63.60 65.17 64.72 63.67 63.05 64.18 65.96 65.09 63.87 62.66 62.09 62.70 61.87 61.12 58.41 57.38 56.36 55.45 54.04 53.11 51.46
39.38 40.73 42.71 44.49 44.43 42.82 44.26 41.84 41.62 41.15 40.81 42.85 44.00 44.32 42.76 42.17 42.13 42.34 43.49 44.41 45.26 47.55 47.29 49.18 51.71 53.30 54.55 52.80 63.44 62.24 61.20 60.71 60.82 62.56 63.81 64.67 64.18 63.26 62.04 60.57 60.00 59.33 58.27 55.82 55.89 55.66 53.01 52.31 52.78
42.07 42.29 42.34 43.69 43.60 43.70 42.78 40.92 41.74 40.68 41.40 42.12 42.96 41.85 41.29 41.69 41.61 40.87 42.22 43.14 46.17 47.68 47.47 49.63 53.44 55.19 56.56 60.44 59.73 59.04 59.04 58.72 58.63 58.86 59.86 60.81 60.95 59.84 58.42 57.48 57.00 56.65 56.40 54.93 53.15 52.67 51.48 50.94 51.53
42.32 38.49 40.49 41.63 43.14 42.32 42.64 39.14 40.62 41.30 40.97 41.13 41.00 40.04 40.49 41.02 41.52 41.01 41.71 42.68 46.41 47.05 48.43 49.74 51.88 54.38 54.08 56.18 56.55 56.27 56.28 56.49 56.27 56.10 55.93 55.97 56.53 56.37 55.74 54.95 54.36 54.34 54.06 53.95 53.51 51.76 50.50 47.98 48.53
37.91 37.14 34.39 40.10 41.88 41.41 40.90 35.52 41.55 40.97 40.40 39.56 39.40 37.94 39.44 40.02 40.59 40.26 41.41 44.19 45.79 46.43 47.57 48.70 51.20 52.28 53.37 53.75 54.03 53.94 53.93 54.17 53.82 54.13 54.21 53.46 52.95 52.88 53.56 52.95 52.40 52.68 51.95 50.23 48.44 46.95 42.89 42.66 43.27
35.25 31.93 33.37 38.27 41.39 40.11 38.85 36.95 40.53 39.50 39.82 38.90 37.74 37.55 38.60 38.42 38.69 39.23 41.21 44.63 45.16 45.98 46.71 46.87 48.28 50.12 50.11 50.17 49.29 48.79 48.73 48.93 48.83 50.13 49.54 48.79 49.15 48.31 47.13 45.84 45.27 45.51 45.35 45.72 42.94 40.36 40.38 39.82 41.87
32.23 32.03 34.35 34.93 39.24 37.87 36.10 37.30 39.18 39.47 39.39 39.62 37.72 37.39 37.56 37.98 38.83 39.06 41.63 44.02 45.00 45.46 46.08 46.23 47.59 47.76 47.17 46.52 45.86 44.67 43.52 42.90 44.29 44.93 44.17 44.19 44.62 44.17 42.62 40.71 39.94 40.94 41.65 41.17 39.69 36.80 35.65 36.38 40.02
36.11 34.16 33.95 36.51 40.76 38.27 36.83 37.37 39.81 39.76 37.94 37.54 37.28 37.50 38.10 38.88 38.25 39.17 42.37 43.38 44.14 44.26 44.79 45.10 47.10 46.62 47.06 45.55 43.89 43.17 39.53 39.79 39.69 40.07 39.02 39.69 39.92 39.78 38.26 36.91 36.67 36.65 36.58 36.06 37.61 35.96 33.01 33.23 34.04
36.40 34.23 33.93 37.20 39.76 37.93 37.09 36.16 39.09 38.80 39.09 40.59 40.55 39.45 39.55 36.81 36.48 38.56 41.18 42.06 43.52 44.04 44.76 45.16 45.64 46.52 47.41 46.95 42.62 40.51 38.64 37.24 37.39 36.87 36.13 36.73 36.93 36.61 36.00 35.01 33.87 33.44 33.41 32.16 32.03 33.16 31.84 30.97 30.92
35.98 34.31 33.44 36.05 36.44 35.97 33.94 32.75 36.20 39.70 40.07 40.35 42.31 42.90 41.87 39.58 37.56 37.63 40.52 41.28 41.90 43.27 44.02 45.83 45.84 46.61 44.83 40.95 39.15 37.26 37.09 36.74 35.44 33.04 33.40 34.30 35.09 34.68 34.44 33.45 32.99 32.25 32.09 30.71 29.94 30.52 30.77 28.87 29.77
34.08 39.13 38.42 37.08 34.17 30.01 34.55 28.36 33.79 36.81 38.55 39.00 41.72 40.00 41.25 39.29 38.31 38.55 40.40 40.91 41.69 42.90 44.11 46.02 48.31 43.30 41.34 40.77 38.83 38.08 36.65 34.19 31.96 31.65 32.01 32.17 32.92 32.59 32.79 32.44 31.79 30.97 30.81 30.12 29.87 30.25 29.37 29.27 27.36
36.85 39.02 37.08 35.33 32.03 29.78 31.46 28.32 32.28 35.37 36.35 39.48 42.48 40.86 39.94 38.21 38.08 38.09 40.04 42.49 42.10 43.07 45.51 43.83 42.53 41.46 40.68 40.15 39.42 37.46 33.24 32.58 31.67 30.98 30.40 30.13 30.35 30.74 30.85 30.81 30.20 29.93 30.04 28.90 29.04 28.35 28.32 28.29 27.33
39.41 36.74 35.28 32.95 31.20 25.94 32.89 30.71 31.58 35.16 38.88 40.66 43.09 42.11 39.23 37.42 37.62 38.92 40.23 41.87 40.48 39.70 42.36 42.58 41.52 39.98 39.65 39.02 37.43 35.87 32.36 31.18 30.34 29.50 28.86 28.13 28.25 28.63 29.37 29.88 29.42 29.37 29.31 28.93 28.34 27.68 27.35 26.89 26.60
37.87 35.38 26.64 25.23 23.67 26.19 30.92 28.96 36.52 38.19 40.41 40.75 42.99 40.53 36.68 36.78 36.66 37.14 37.94 39.59 38.36 37.55 38.69 40.92 40.30 38.09 37.36 36.07 35.22 34.44 32.56 32.03 30.74 29.57 29.01 28.37 27.85 27.04 27.59 29.21 29.22 28.73 28.24 28.04 27.68 27.18 26.77 26.62 26.08
35.63 34.54 27.50 20.34 22.05 24.50 28.75 26.81 33.45 38.66 41.76 40.29 38.83 37.96 35.25 34.67 36.39 36.88 38.15 39.48 37.78 36.03 36.12 39.21 37.89 35.27 35.38 33.89 32.80 32.46 32.17 31.43 30.71 29.94 29.39 29.06 28.55 28.40 27.66 27.31 27.43 27.60 27.60 27.08 27.00 26.57 25.94 25.09 24.31
33.56 31.65 36.56 30.47 16.65 21.48 28.73 31.80 36.94 37.41 37.34 37.69 37.86 35.02 32.91 33.97 35.06 35.96 37.20 37.47 35.89 34.80 34.05 36.19 36.02 35.57 33.44 32.88 32.36 31.43 31.31 30.51 30.21 29.13 28.65 28.60 27.89 28.30 27.05 26.64 26.25 26.30 26.04 25.77 25.17 24.86 24.15 23.74 23.56
35.41 37.91 30.05 28.52 19.44 18.22 26.57 27.63 32.74 33.94 36.12 38.13 37.02 34.35 33.21 33.23 33.16 33.86 34.62 34.66 34.84 34.42 32.67 32.87 34.80 33.19 32.17 31.99 32.32 32.17 31.77 30.97 30.35 29.72 27.89 27.30 26.82 26.98 25.94 25.06 24.84 25.12 25.35 25.14 24.37 23.22 23.59 22.99 22.54
32.86 31.89 32.41 32.56 28.40 21.93 19.71 29.03 34.87 38.33 38.25 37.81 37.79 35.87 33.64 33.21 33.00 33.01 33.27 33.35 33.14 32.46 30.96 30.77 31.03 30.48 30.57 31.96 31.71 30.94 30.32 29.86 29.29 28.19 27.38 27.09 26.72 26.05 25.58 25.43 24.98 24.74 24.36 23.99 23.20 22.72 22.54 22.34 22.11
34.35 33.28 33.05 27.49 25.06 27.05 26.24 32.57 35.85 37.26 38.60 38.09 38.10 36.61 34.92 35.23 33.39 32.89 32.30 31.37 30.81 29.82 30.11 30.22 30.30 30.55 30.89 31.16 30.68 30.61 29.61 28.90 27.93 27.32 26.76 26.45 26.16 25.72 25.72 25.15 24.58 24.02 23.68 23.01 22.75 22.16 22.28 21.77 21.68
MSLP
1013.76 1013.57 1013.66 1014.21 1016.30 1017.71 1018.24 1017.99 1017.33 1017.08 1017.08 1017.21 1017.12 1017.60 1018.76 1019.28 1019.49 1020.05 1019.31 1019.21 1019.08 1019.52 1019.88 1020.12 1020.20 1020.55 1020.72 1020.87 1021.03 1021.20 1021.34 1021.43 1021.70 1021.84 1021.88 1022.04 1022.12 1022.20 1022.29 1022.29 1022.39 1022.38 1022.39 1022.45 1022.30 1022.19 1022.16 1022.19 1022.06
1013.83 1013.61 1014.17 1015.51 1017.25 1018.68 1018.90 1017.92 1017.39 1017.08 1017.29 1017.31 1017.64 1018.27 1018.86 1019.70 1019.43 1019.47 1019.51 1019.52 1019.28 1019.62 1019.98 1020.27 1020.45 1020.66 1020.82 1020.90 1021.03 1021.34 1021.47 1021.71 1021.91 1021.95 1022.11 1022.32 1022.47 1022.58 1022.69 1022.70 1022.76 1022.74 1022.71 1022.67 1022.65 1022.58 1022.59 1022.53 1022.45
1013.69 1013.92 1015.18 1016.42 1018.16 1018.77 1018.38 1018.01 1017.27 1017.30 1017.13 1017.25 1018.16 1018.80 1019.34 1019.91 1019.56 1019.32 1019.19 1019.34 1019.49 1019.88 1020.04 1020.30 1020.47 1020.69 1020.89 1021.11 1021.33 1021.46 1021.62 1021.78 1021.98 1022.15 1022.32 1022.65 1022.79 1022.98 1023.06 1023.12 1023.12 1023.13 1023.09 1023.08 1023.06 1023.05 1023.06 1023.00 1022.86
1013.90 1014.63 1016.26 1017.00 1017.94 1017.90 1017.65 1017.45 1016.99 1017.09 1017.29 1017.43 1018.29 1019.61 1019.80 1019.87 1019.60 1019.28 1019.17 1019.19 1019.53 1019.88 1020.16 1020.47 1020.64 1020.84 1021.07 1021.32 1021.49 1021.67 1021.81 1022.01 1022.17 1022.37 1022.63 1022.94 1023.17 1023.37 1023.56 1023.57 1023.56 1023.57 1023.64 1023.51 1023.49 1023.55 1023.51 1023.40 1023.31
1014.55 1015.77 1017.13 1017.88 1017.65 1017.34 1017.11 1016.99 1016.87 1017.16 1017.42 1017.97 1018.38 1019.96 1020.29 1020.12 1019.94 1019.63 1019.49 1019.36 1019.69 1019.90 1020.09 1020.52 1020.74 1020.96 1021.22 1021.43 1021.63 1021.80 1021.99 1022.18 1022.43 1022.63 1022.90 1023.19 1023.41 1023.59 1023.75 1023.73 1023.79 1023.77 1023.95 1023.95 1023.91 1023.95 1023.91 1023.92 1023.81
1015.59 1016.54 1017.86 1018.21 1017.79 1017.16 1016.79 1016.56 1016.78 1017.20 1017.73 1018.29 1019.03 1020.05 1020.71 1020.57 1020.28 1020.35 1020.05 1020.10 1019.83 1019.97 1020.09 1020.46 1020.86 1021.07 1021.33 1021.55 1021.73 1021.93 1022.09 1022.27 1022.50 1022.74 1023.02 1023.23 1023.45 1023.64 1023.84 1023.89 1023.98 1024.04 1024.15 1024.22 1024.19 1024.26 1024.30 1024.35 1024.34
1016.10 1017.36 1018.09 1017.95 1017.66 1017.07 1016.37 1016.10 1016.61 1017.22 1017.78 1018.37 1018.88 1020.55 1021.04 1020.92 1020.84 1020.77 1020.65 1020.60 1020.51 1020.47 1020.74 1020.90 1021.04 1021.21 1021.40 1021.66 1021.82 1021.98 1022.14 1022.30 1022.52 1022.74 1023.04 1023.29 1023.54 1023.75 1023.92 1024.06 1024.09 1024.26 1024.39 1024.41 1024.44 1024.51 1024.57 1024.59 1024.66
1016.18 1017.40 1018.04 1017.80 1017.66 1016.85 1016.19 1016.16 1016.46 1016.98 1017.96 1018.41 1019.01 1020.28 1021.11 1020.80 1020.91 1020.89 1021.13 1021.19 1021.21 1021.21 1021.44 1021.35 1021.34 1021.39 1021.43 1021.60 1021.75 1021.96 1022.20 1022.45 1022.67 1022.91 1023.22 1023.52 1023.69 1023.88 1024.10 1024.19 1024.27 1024.41 1024.57 1024.59 1024.60 1024.73 1024.78 1024.90 1024.94
1016.12 1017.35 1017.98 1017.48 1017.41 1016.54 1016.21 1016.43 1016.66 1016.99 1017.90 1019.08 1019.67 1019.89 1019.88 1020.36 1021.04 1021.28 1021.62 1021.83 1021.96 1022.02 1021.99 1021.85 1021.72 1021.61 1021.50 1021.50 1021.76 1021.92 1022.08 1022.30 1022.62 1023.00 1023.31 1023.62 1023.84 1023.99 1024.25 1024.41 1024.44 1024.47 1024.60 1024.80 1024.98 1025.09 1025.23 1025.35 1025.33
1016.49 1017.53 1017.32 1016.92 1016.70 1016.47 1016.26 1016.33 1016.73 1017.41 1018.45 1019.57 1020.06 1020.24 1020.30 1020.65 1021.17 1021.65 1022.07 1022.25 1022.31 1022.37 1022.40 1022.27 1022.07 1021.91 1021.74 1021.54 1021.66 1021.81 1021.95 1022.14 1022.45 1022.87 1023.32 1023.60 1023.87 1024.14 1024.38 1024.66 1024.90 1025.06 1024.98 1024.81 1024.93 1025.27 1025.51 1025.65 1025.79
1016.49 1016.89 1016.75 1016.71 1016.45 1016.32 1016.47 1016.57 1016.82 1017.54 1018.69 1019.10 1019.80 1020.38 1020.66 1021.05 1021.55 1021.95 1022.36 1022.47 1022.50 1022.50 1022.57 1022.52 1022.34 1022.15 1021.96 1021.81 1021.74 1021.67 1022.08 1022.34 1022.58 1022.85 1023.28 1023.52 1024.01 1024.36 1024.71 1025.04 1025.31 1025.54 1025.56 1025.60 1025.61 1025.68 1025.88 1026.15 1026.28
1016.40 1016.45 1016.40 1016.51 1016.43 1016.36 1016.66 1016.74 1017.18 1017.79 1018.15 1018.42 1019.15 1020.10 1020.76 1021.32 1021.74 1022.01 1022.34 1022.57 1022.67 1022.75 1022.75 1022.64 1022.50 1022.35 1022.16 1021.93 1021.73 1021.99 1022.16 1022.55 1022.74 1022.77 1023.03 1023.37 1023.99 1024.40 1024.78 1025.04 1025.34 1025.61 1025.88 1025.85 1025.98 1026.13 1026.40 1026.63 1026.77
1016.40 1016.50 1016.36 1016.44 1016.56 1016.65 1016.77 1017.11 1017.53 1018.16 1018.75 1019.12 1019.61 1020.44 1021.15 1021.59 1021.91 1022.19 1022.26 1022.48 1022.72 1022.84 1022.82 1022.78 1022.60 1022.38 1022.22 1022.16 1021.97 1022.22 1022.55 1022.80 1022.92 1023.04 1023.10 1023.30 1023.84 1024.36 1024.79 1025.27 1025.61 1025.97 1026.11 1026.37 1026.44 1026.61 1026.96 1027.08 1027.19
1016.56 1016.72 1016.65 1016.58 1016.74 1016.87 1017.20 1017.51 1017.90 1018.39 1019.12 1019.83 1020.30 1020.84 1021.37 1021.67 1021.89 1022.30 1022.42 1022.50 1022.64 1022.71 1022.74 1022.69 1022.47 1022.34 1022.15 1022.11 1022.27 1022.59 1022.79 1023.08 1023.33 1023.59 1023.57 1023.76 1024.15 1024.65 1025.25 1025.74 1026.08 1026.33 1026.40 1026.59 1026.79 1026.99 1027.20 1027.43 1027.44
1016.95 1017.27 1017.13 1016.79 1016.93 1017.16 1017.42 1018.13 1017.95 1018.38 1019.46 1020.23 1020.72 1021.08 1021.55 1021.73 1021.96 1022.06 1022.12 1022.29 1022.40 1022.59 1022.63 1022.61 1022.54 1022.42 1022.45 1022.67 1022.81 1023.00 1023.20 1023.42 1023.69 1024.01 1024.19 1024.43 1024.62 1025.10 1025.61 1026.12 1026.45 1026.63 1026.60 1026.64 1026.78 1027.08 1027.37 1027.65 1027.81
1017.71 1017.96 1017.98 1017.15 1017.18 1017.36 1017.82 1017.82 1017.59 1018.38 1019.45 1020.27 1020.88 1021.33 1021.53 1021.72 1021.77 1021.96 1021.96 1022.13 1022.37 1022.49 1022.55 1022.53 1022.39 1022.52 1022.57 1022.91 1023.18 1023.43 1023.65 1023.75 1023.96 1024.35 1024.57 1024.94 1025.28 1025.59 1025.93 1026.44 1026.82 1026.98 1026.95 1027.22 1027.44 1027.66 1028.11 1028.44 1028.49
1018.83 1018.68 1018.56 1017.81 1017.45 1017.73 1018.16 1017.90 1017.76 1018.45 1019.34 1020.17 1020.67 1021.14 1021.25 1021.50 1021.69 1021.77 1021.90 1022.12 1022.35 1022.42 1022.54 1022.63 1022.61 1022.67 1022.75 1023.08 1023.45 1023.98 1024.22 1024.38 1024.59 1024.66 1024.97 1025.48 1025.78 1026.13 1026.58 1027.20 1027.62 1027.60 1027.73 1027.92 1028.09 1028.55 1028.60 1029.05 1029.13
1019.07 1019.12 1018.56 1018.08 1017.80 1018.04 1018.39 1017.89 1017.97 1018.58 1019.23 1019.37 1019.98 1020.46 1020.87 1020.99 1020.80 1021.40 1021.82 1022.09 1022.24 1022.44 1022.63 1022.69 1022.82 1022.89 1023.04 1023.22 1023.91 1024.49 1024.96 1025.32 1025.39 1025.50 1025.56 1026.03 1026.29 1026.55 1027.04 1027.57 1027.96 1028.06 1028.20 1028.44 1028.66 1028.88 1029.36 1029.71 1029.67
1018.54 1018.75 1018.56 1017.97 1017.51 1018.05 1018.04 1018.05 1017.66 1018.10 1018.81 1019.08 1019.37 1019.45 1019.76 1019.97 1020.54 1021.22 1021.58 1021.95 1022.33 1022.56 1022.67 1022.73 1022.80 1023.09 1023.15 1023.45 1024.12 1024.81 1025.53 1026.05 1026.24 1026.40 1026.47 1026.77 1026.79 1026.97 1027.24 1027.83 1028.26 1028.54 1028.71 1029.06 1028.98 1029.31 1029.71 1030.33 1030.58
1018.67 1018.79 1018.57 1018.07 1017.66 1018.08 1017.79 1017.72 1017.26 1017.47 1017.38 1017.24 1017.41 1017.89 1018.21 1019.24 1019.94 1020.63 1021.24 1021.61 1021.91 1022.18 1022.44 1022.61 1022.69 1022.89 1023.12 1023.36 1023.88 1024.50 1025.57 1026.55 1026.91 1027.08 1027.24 1027.45 1027.45 1027.36 1027.41 1027.81 1028.64 1028.94 1029.04 1029.39 1029.56 1029.59 1030.32 1030.97 1030.90
1018.58 1018.59 1018.55 1018.48 1018.14 1018.09 1018.20 1017.63 1017.00 1016.01 1015.81 1015.79 1015.74 1015.86 1016.46 1017.20 1018.56 1019.96 1020.75 1021.10 1021.46 1021.75 1021.98 1022.24 1022.51 1022.80 1023.10 1023.60 1024.12 1025.15 1025.96 1026.78 1027.41 1027.87 1028.07 1028.21 1028.07 1028.10 1028.13 1028.23 1028.80 1029.21 1029.39 1029.93 1030.21 1030.22 1030.32 1031.32 1031.85
1018.24 1017.79 1018.27 1018.63 1018.95 1018.91 1018.62 1016.91 1016.26 1015.65 1015.23 1014.95 1014.35 1014.87 1015.04 1016.27 1017.77 1018.89 1019.70 1020.31 1020.65 1021.02 1021.49 1021.77 1022.13 1022.65 1023.11 1023.50 1024.15 1024.49 1025.08 1026.36 1027.54 1028.04 1028.50 1028.67 1028.73 1028.83 1028.63 1028.71 1029.31 1029.80 1030.18 1030.47 1030.63 1030.67 1030.84 1031.29 1032.07
1017.66 1017.74 1018.33 1018.75 1019.27 1019.54 1018.99 1018.77 1015.12 1014.93 1014.71 1013.92 1013.00 1013.24 1014.14 1015.07 1016.02 1017.20 1018.07 1018.76 1019.71 1020.40 1020.79 1021.29 1021.81 1022.45 1022.92 1023.48 1024.03 1024.52 1025.42 1026.19 1027.43 1028.27 1028.68 1029.19 1029.48 1029.29 1029.16 1029.47 1029.96 1030.33 1030.62 1031.02 1031.02 1031.40 1031.65 1032.01 1032.51
1017.62 1018.24 1019.11 1019.81 1020.27 1019.95 1018.59 1018.44 1014.19 1014.23 1012.96 1012.26 1011.74 1012.32 1013.14 1014.23 1015.25 1016.37 1017.61 1018.60 1019.34 1019.94 1020.41 1020.91 1021.53 1022.28 1022.89 1023.49 1024.21 1024.73 1025.34 1026.43 1027.58 1028.42 1029.02 1029.64 1029.88 1029.84 1029.89 1030.11 1030.33 1030.64 1030.96 1031.32 1031.68 1031.95 1032.41 1033.01 1033.14
1017.66 1018.80 1020.16 1020.96 1021.28 1019.25 1017.95 1017.54 1013.30 1012.60 1011.84 1011.58 1011.50 1011.90 1012.85 1013.93 1015.15 1016.22 1017.25 1018.23 1019.13 1019.66 1020.07 1020.63 1021.26 1022.19 1022.95 1023.64 1024.32 1024.94 1025.53 1026.06 1026.95 1027.91 1028.69 1029.40 1029.86 1030.14 1030.32 1030.26 1030.56 1030.98 1031.44 1031.71 1031.92 1032.39 1032.89 1033.25 1033.57
1017.22 1017.85 1019.06 1020.13 1020.90 1019.60 1018.59 1016.09 1012.71 1011.47 1010.84 1011.14 1011.43 1011.98 1013.10 1014.45 1015.28 1015.93 1016.67 1017.64 1018.60 1019.38 1019.90 1020.37 1021.18 1022.07 1022.87 1023.63 1024.39 1025.05 1025.61 1026.18 1026.90 1027.46 1028.20 1028.86 1029.36 1029.75 1030.21 1030.58 1030.91 1031.50 1031.75 1031.88 1032.26 1032.89 1033.41 1033.88 1034.22
1017.05 1017.39 1017.78 1019.14 1020.96 1020.45 1017.15 1014.38 1012.36 1011.38 1011.35 1011.31 1011.35 1012.47 1013.62 1014.43 1015.28 1015.96 1016.81 1017.52 1018.33 1019.16 1019.80 1020.15 1021.06 1021.89 1022.70 1023.50 1024.34 1025.02 1025.49 1025.99 1026.52 1027.34 1028.14 1028.75 1029.35 1029.80 1030.34 1030.75 1031.27 1031.72 1031.85 1032.07 1032.55 1033.28 1033.84 1034.05 1034.33
1015.52 1016.20 1018.08 1019.18 1020.24 1019.60 1016.24 1014.46 1012.05 1011.29 1011.07 1011.01 1011.44 1012.54 1013.51 1014.43 1015.29 1016.07 1016.81 1017.62 1018.34 1018.99 1019.60 1020.08 1020.67 1021.50 1022.41 1023.21 1023.92 1024.62 1025.29 1025.92 1026.49 1027.19 1028.05 1028.76 1029.38 1029.80 1030.38 1031.03 1031.59 1031.82 1031.94 1032.19 1032.63 1033.56 1034.07 1034.33 1034.56
1015.84 1015.82 1016.72 1017.64 1018.29 1017.89 1016.22 1011.97 1010.26 1010.06 1010.11 1010.57 1011.18 1011.81 1013.03 1013.94 1014.86 1015.78 1016.69 1017.58 1018.32 1019.05 1019.70 1020.30 1020.94 1021.66 1022.47 1023.05 1023.75 1024.49 1025.23 1025.84 1026.54 1027.20 1027.88 1028.44 1029.08 1029.62 1030.19 1030.82 1031.31 1031.63 1031.84 1032.08 1032.70 1033.34 1033.81 1034.04 1034.18
1014.46 1014.53 1015.39 1016.35 1016.91 1016.44 1015.33 1008.86 1009.08 1009.37 1009.65 1010.18 1010.79 1011.43 1012.34 1013.28 1014.40 1015.38 1016.22 1017.05 1017.97 1018.87 1019.57 1020.20 1020.85 1021.37 1022.02 1022.77 1023.48 1024.22 1024.94 1025.60 1026.33 1027.00 1027.63 1028.26 1028.74 1029.39 1030.10 1030.94 1031.35 1031.55 1031.76 1032.26 1032.84 1033.20 1033.44 1033.83 1034.18
Wind_Speed
6 6 2 5 6 7 1 1 1 1 4 4 3 10 10 4 2 4 2 3 12 9 6 8 12 12 12 11 10 10 11 14 15 16 16 16 15 16 15 16 15 15 15 15 15 15 14 14 15
4 2 5 3 7 5 3 2 4 3 6 8 8 4 8 4 2 2 2 6 9 9 7 7 11 12 12 12 11 10 11 13 14 16 15 15 15 15 15 15 15 14 15 15 15 15 15 14 15
2 2 5 6 4 5 5 4 6 5 9 3 5 6 4 1 3 2 1 10 9 8 7 8 10 11 11 11 10 11 11 13 14 15 16 15 15 14 15 15 15 14 15 15 15 15 14 14 16
3 5 6 7 3 1 7 6 6 5 3 6 6 7 3 2 1 3 5 11 10 8 8 9 11 11 10 10 10 10 11 12 13 14 15 15 15 14 14 14 15 15 15 15 16 16 16 15 16
5 4 5 4 2 3 1 4 8 4 2 4 1 5 3 3 4 6 7 7 9 7 9 10 11 11 10 10 10 9 10 11 11 12 15 15 15 14 14 14 15 15 15 16 16 16 16 16 17
5 4 6 3 3 2 3 6 7 3 3 4 7 5 3 3 6 5 8 7 5 7 8 9 8 9 9 9 9 9 10 10 11 12 14 15 15 14 14 14 14 15 15 15 15 15 15 15 15
7 5 5 4 4 2 4 5 7 7 5 2 9 6 2 1 6 5 8 8 8 9 8 4 5 7 9 9 8 9 10 9 10 11 12 13 13 13 13 12 15 15 14 15 15 15 15 15 15
6 5 3 3 6 5 3 3 5 6 3 4 2 7 6 5 7 7 7 8 8 8 6 5 3 4 6 5 9 9 9 9 9 9 10 11 11 11 10 10 12 15 14 13 13 13 13 13 13
4 6 2 1 6 4 2 4 0 3 7 4 4 4 3 10 8 7 5 4 5 5 5 4 4 3 3 5 6 9 11 11 11 9 11 9 4 6 7 5 9 14 14 13 11 10 10 10 11
6 5 5 2 3 4 5 5 7 4 4 4 3 3 4 7 6 8 6 5 3 3 3 4 4 3 2 0 5 5 6 5 5 6 7 5 4 5 5 6 9 7 6 12 13 11 10 8 5
2 5 4 2 1 3 4 1 4 9 3 7 10 10 6 6 7 8 5 5 5 2 2 4 4 3 3 2 1 1 2 3 2 6 5 5 4 4 3 3 3 3 4 3 5 5 4 6 4
3 1 3 3 1 2 5 1 3 5 6 2 9 8 6 9 9 9 8 7 6 4 2 2 3 3 3 3 1 3 5 3 3 4 7 6 5 4 4 3 3 3 1 4 4 3 5 6 6
2 2 2 3 4 3 1 3 4 4 2 5 11 8 9 8 8 5 7 6 6 5 3 1 2 3 3 2 3 5 5 4 4 4 5 6 6 5 5 5 4 3 3 3 4 5 5 5 5
3 0 3 4 4 4 5 3 3 2 6 8 9 9 8 9 9 5 7 7 6 5 4 1 1 0 3 4 5 5 5 5 5 4 5 7 6 6 6 5 4 4 3 4 4 4 4 4 4
1 3 5 5 5 4 4 5 11 6 9 9 9 8 8 9 8 9 8 7 7 5 5 5 4 3 5 6 6 5 5 5 6 5 7 7 7 7 7 5 5 3 3 5 5 6 5 5 4
1 4 2 3 7 2 6 8 6 9 13 12 10 8 8 8 9 8 7 7 7 6 6 5 4 5 7 7 6 6 5 6 6 6 7 8 8 7 7 6 4 3 5 5 4 4 4 4 4
5 4 5 8 7 4 5 7 3 6 9 9 9 9 9 8 8 7 7 7 7 6 6 6 6 7 8 9 8 7 7 6 5 6 7 7 8 7 7 5 4 5 5 5 4 5 4 4 4
6 5 5 5 5 2 4 12 5 6 9 13 10 10 10 11 14 8 8 7 7 7 6 6 6 8 8 8 8 7 7 5 5 5 7 7 6 8 7 6 5 4 5 5 4 6 5 4 4
4 4 5 4 5 6 9 9 12 9 7 9 10 12 13 16 7 8 7 7 7 6 7 7 10 9 8 8 7 6 5 4 5 5 7 6 7 8 8 6 6 5 6 5 4 3 6 8 5
4 4 8 6 5 7 7 11 12 6 10 14 18 16 17 8 10 11 9 8 9 9 8 7 8 11 8 6 5 5 5 5 4 4 6 5 6 7 8 9 7 5 7 6 5 4 3 4 5
7 8 5 9 2 3 4 7 9 10 10 8 16 17 16 20 18 14 12 11 8 10 10 10 10 10 6 9 9 8 9 6 3 4 4 4 6 7 9 9 8 7 5 6 5 5 6 5 5
8 7 6 5 1 5 3 9 6 6 12 9 18 14 18 14 14 15 16 14 13 12 8 9 12 8 10 11 11 14 9 8 3 3 3 5 6 6 7 9 8 7 4 7 5 5 4 4 4
7 4 5 3 3 2 5 5 6 3 8 13 18 14 15 16 21 21 20 18 13 11 12 9 10 10 11 11 10 9 8 8 7 5 8 6 5 6 7 7 7 7 6 6 7 6 7 4 3
5 5 6 5 3 6 11 9 6 8 12 9 17 11 14 16 18 17 13 13 11 8 10 11 12 11 11 11 10 11 16 14 11 8 7 4 3 4 6 6 7 6 7 7 6 6 8 6 5
5 7 3 4 1 11 3 8 18 6 10 13 15 9 10 11 15 16 17 16 13 13 12 11 13 11 10 11 11 12 14 15 15 12 9 10 6 3 5 6 6 6 6 6 7 7 6 5 4
10 10 9 9 6 5 1 10 9 12 12 8 9 7 7 9 12 16 17 16 15 13 12 13 12 10 12 11 11 11 12 9 9 9 9 7 6 6 5 6 7 6 6 7 6 5 5 5 5
8 9 6 2 2 2 7 9 9 10 9 10 13 4 8 10 12 14 13 14 15 14 13 13 13 12 12 12 11 12 11 12 11 9 6 6 7 7 7 7 7 6 7 7 7 5 5 5 4
7 9 3 1 3 7 6 7 11 5 11 13 11 8 9 8 9 10 12 12 12 12 9 10 12 13 12 12 12 12 12 10 10 10 10 9 7 8 8 7 6 7 6 7 7 5 4 5 3
4 6 3 5 6 6 3 9 8 11 11 10 11 9 10 12 12 12 11 10 10 9 9 9 10 10 11 12 11 12 11 10 10 10 10 10 9 10 9 9 8 7 7 7 7 6 6 6 5
1 4 7 6 6 6 3 20 4 6 6 7 8 8 9 11 12 12 12 12 11 11 11 11 10 11 11 11 11 12 11 11 11 11 10 10 11 8 9 8 7 7 7 6 7 7 6 6 5
Wind_Direction
331 323 88 42 58 65 34 37 168 61 50 352 19 103 114 77 87 176 291 122 137 138 134 131 125 119 114 109 107 110 115 115 113 104 98 92 86 80 74 70 68 64 62 59 58 58 58 53 49
332 343 43 80 83 70 286 313 123 134 137 144 91 57 53 51 64 112 96 167 138 137 136 133 127 127 124 119 113 122 119 120 115 110 103 99 93 87 82 78 74 68 63 59 56 57 54 50 49
295 58 81 89 106 155 174 208 170 137 169 133 94 56 87 26 333 167 170 156 136 141 141 141 136 132 127 121 119 120 125 127 122 117 111 107 101 95 88 82 74 67 65 63 62 61 58 53 52
45 11 33 79 91 254 163 194 188 137 111 81 122 68 39 337 214 201 129 148 142 148 147 151 147 142 137 129 124 122 124 122 125 126 118 113 107 100 95 88 80 72 64 61 60 57 54 52 53
40 57 60 77 31 101 128 198 153 133 93 62 123 142 88 2 41 24 89 143 147 158 155 155 151 150 148 141 136 132 129 129 132 131 126 121 115 108 102 93 86 78 70 66 64 60 56 53 54
43 93 64 150 219 212 180 181 137 106 119 163 71 96 167 335 66 15 66 60 59 131 136 141 145 152 151 148 144 144 138 137 136 136 135 131 126 121 115 107 97 86 79 75 71 67 63 60 57
105 79 169 142 176 174 202 145 129 141 129 96 142 104 205 184 130 100 77 64 61 68 63 73 123 149 155 156 155 154 150 149 148 147 146 139 136 132 128 121 109 96 90 88 82 75 69 67 63
102 91 105 164 186 215 239 88 126 137 121 124 110 166 188 210 149 107 80 67 63 58 62 59 84 172 161 167 163 159 155 152 148 145 141 141 141 136 141 139 123 112 103 95 92 87 78 71 67
95 64 113 177 154 215 177 131 33 74 99 61 358 147 184 136 130 97 83 64 66 53 54 48 61 35 119 160 176 170 170 166 154 140 144 142 145 150 143 121 129 126 118 107 97 95 87 77 63
81 98 193 196 191 210 187 156 151 117 112 53 50 27 89 127 140 132 134 127 104 90 52 42 32 1 7 237 181 177 173 164 155 147 154 149 146 113 115 104 91 92 108 123 116 101 83 67 53
150 159 191 196 258 146 169 164 186 125 232 191 187 177 154 136 144 144 152 159 158 137 48 22 9 344 313 245 204 141 107 107 116 158 153 141 113 120 111 102 90 99 53 44 52 73 66 63 61
99 210 173 165 162 115 160 175 158 180 214 218 169 153 142 149 157 160 160 164 158 141 156 350 346 321 275 268 202 110 113 105 101 111 143 139 131 124 123 114 116 108 107 111 93 76 73 62 60
125 234 174 164 149 150 108 194 188 213 174 101 122 140 156 159 163 167 159 157 151 168 190 255 304 278 261 205 104 101 101 98 81 73 95 118 127 127 102 84 76 75 74 62 59 58 59 57 50
178 320 257 215 203 184 182 223 167 193 158 143 149 166 171 172 175 150 168 173 171 171 192 245 96 37 158 113 105 104 97 88 75 58 67 78 93 95 89 84 74 63 67 75 75 75 72 60 66
87 304 318 230 197 211 140 285 236 166 165 175 182 177 180 189 182 190 191 181 176 186 172 163 131 93 97 95 95 94 97 97 90 78 70 73 84 93 95 89 81 83 89 88 82 70 65 59 48
49 44 342 287 144 235 131 260 254 169 166 196 194 194 194 201 199 200 191 177 181 167 171 150 132 114 98 107 98 95 94 97 94 93 86 82 85 93 99 97 90 73 72 75 70 64 66 67 66
354 232 211 311 194 136 172 260 259 159 176 200 203 203 206 204 211 205 190 179 179 175 165 150 134 123 119 112 99 88 78 78 87 99 95 83 86 82 91 87 72 69 74 66 73 51 66 52 56
204 223 241 225 206 184 197 263 256 195 194 213 204 213 213 208 211 190 184 181 174 178 174 150 134 133 124 111 100 85 76 64 64 75 91 88 91 94 97 86 75 70 88 74 65 73 48 74 68
168 198 238 253 216 170 223 243 261 208 226 236 227 220 217 218 188 182 183 176 170 178 165 163 149 152 141 130 124 113 102 93 75 67 68 79 97 100 102 94 84 70 79 76 60 88 58 35 5
243 251 264 284 244 178 251 245 251 201 222 218 222 222 220 185 181 186 181 180 180 177 179 170 166 163 160 147 114 111 122 81 74 79 71 72 87 95 101 102 89 82 91 70 59 61 100 64 13
231 216 234 232 345 268 320 269 241 248 232 234 236 227 220 203 187 181 183 188 179 185 179 175 168 169 133 120 111 102 102 102 93 52 63 47 77 80 94 93 99 90 83 83 68 67 76 105 27
237 204 201 229 133 244 156 281 259 252 247 229 241 220 220 194 182 180 183 187 188 188 173 170 168 148 139 141 141 151 146 140 130 115 97 83 75 92 92 92 90 89 86 85 78 59 78 100 112
231 166 192 212 199 3 214 286 261 233 260 248 247 229 214 191 182 184 189 185 181 173 175 161 150 151 150 150 156 146 120 112 119 112 106 94 76 74 83 92 97 94 91 87 89 74 68 52 86
138 78 45 49 79 259 229 193 206 208 224 247 251 243 203 188 191 186 177 166 171 160 159 157 156 156 153 152 149 149 137 136 136 135 122 112 105 94 87 94 99 103 102 100 99 87 80 80 79
119 111 291 317 337 241 284 204 249 276 260 223 253 249 206 187 178 171 167 173 167 168 163 160 161 157 148 146 145 148 148 148 147 147 146 146 139 123 127 121 113 102 109 107 95 91 90 87 94
198 163 165 215 213 259 5 239 248 228 261 267 259 273 178 174 182 181 176 173 171 169 165 162 162 149 152 151 150 149 150 150 151 152 153 149 147 143 136 118 107 114 113 104 100 97 96 99 92
198 214 178 341 75 357 222 281 290 256 279 267 261 177 179 186 185 179 172 172 170 171 174 164 158 159 160 155 151 157 156 158 159 147 139 140 134 139 132 124 126 133 125 118 109 107 110 109 106
162 161 96 10 224 254 268 260 237 236 234 248 258 202 198 173 168 169 171 173 176 174 167 161 165 164 161 159 163 164 163 156 150 148 146 147 144 138 138 131 140 140 133 125 112 110 118 112 114
151 188 180 137 163 196 298 257 218 210 213 232 253 226 185 185 181 176 175 174 170 163 164 160 158 153 158 163 163 160 160 152 147 149 152 155 148 148 147 158 157 148 137 128 125 134 142 134 136
214 221 154 149 219 234 165 260 159 197 199 208 260 225 192 185 178 178 173 165 165 167 167 171 168 165 168 164 160 164 155 152 153 157 160 158 156 153 155 158 157 147 134 137 148 158 159 160 168